Starlink 1912

operational
NORAD ID: 47178 Int'l Des: 2020-088 Owner: SPXS Country: US Constellation: starlink
LEOCIRCULARSTARLINK_TYPE

About Starlink 1912

Description loading...

Live Position

Loading 3D Globe...

Upcoming Passes

Altitude History

Altitude vs Time

uPlot chart will show altitude changes over time

Two-Line Element Set

1 47178U 20088BJ 25258.59564355 .00001766 00000-0 13743-3 0 9990
2 47178 53.0558 7.6446 0001361 88.3777 271.7367 15.06397988265443
Epoch: Sep 15, 2025 • Age: 11 hours

Current Status

Altitude 551.6 km
Velocity 7.59 km/s
Sub-Earth Point -15.22°S, 21.78°W
Launch Date Nov 25, 2020
Age 4.8 years
Type internet

Technical Details

Classification Payload
Mass 260.00 kg
Dry Mass 248.00 kg
Total Mass 260.00 kg
Length 0.20 m
Diameter 2.80 m
Span 9.00 m
Shape Box + pan
Manufacturer SPXS
Bus Type Starlink
Phase Status In Orbit
Owner/State SPXS/US

Large Constellations

Loading constellations...